DELTA 1 DEB

基本信息
目录编号:
7160
目录名称:
DELTA 1 DEB
国际标识:
1973-086DY
轨道中心:
EARTH
物体状态:
在轨
发射日期:
1973-11-06 UTC
轨道信息
数据来源: 国际轨道数据
星历时间: 2026-09-13T16:41:16+0800
半长轴: 7904.78km
偏心率: 0.007798
轨道倾角: 102.132°
近地点辐角: 191.073°
升交点赤经: 220.010°
平近点角: 327.721°
近地点: 1465.001km
远地点: 1588.285km
周期: 116.572分钟
每日圈数: 12.352877
详细信息
发射场:
AFWTR
轨道高度:
LEO
数据来源:
AOE Integration Group
参考系:
TEME
时间系统:
UTC
历元类型:
SGP4
2D轨道图
3D轨道图
轨道高度分析图
轨道倾角分析图
轨道综合分析图
查看轨道综合分析图